Content
SEND FEEDBACK

Daily
Averages
Monthly
Summary
United States of America

ELIZABETH, NEW JERSEY


Home > North America > United States > New Jersey
Elevation: 1 foot     Latitude: 40 42N     Longitude: 074 10W

WEATHER
 
SELECT A DAY
Number of Records: 189,740;   Date Range: 1/1/95 - 8/12/14
 
SHARE

PRINT THIS DATA

[ ← Previous Day ]
WEATHER ALMANAC - FEBRUARY 13, 2013
[ Next Day → ]
[ °C ]   °F
Weather ElementAverageHighLow
Temperature38.4 °F52 °F (5:51 pm)30 °F (6:51 am)
Dewpoint25.7 °F32 °F (11:32 pm)21.9 °F (9:51 am)
Humidity61.6 %87 % (11:32 pm)38 % (5:51 pm)
Barometer29.81 in29.96 in (1:51 am)29.70 in (5:51 pm)
Wind Speed5.1 mph12.7 mph (10:51 pm)
Weather ElementAverage
Visibility9.3 mi
Wind DirectionESE (113.1 °)

Weather ElementTotal
Precipitation0.05 in
Heating Degree Days24 (Base 65)
Averaged from 26 records on February 13, 2013
WEATHER CONDITIONS BREAKOUT
WIND DIRECTION BREAKOUT
WEATHER BY HOUR - FEBRUARY 13, 2013
[ °C ]   °F
Local TimeTemperatureDewpointHumidityBarometerVisibilityWind DirectionWind SpeedGust SpeedPrecipitationEventsConditions
1:51 AM33.1 °F23.0 °F66 %29.96 in10.0 miWest (260°)6.9 mphPartly Cloudy
2:51 AM30.9 °F23.0 °F72 %29.96 in10.0 miCalmScattered Clouds
3:51 AM30.9 °F23.0 °F72 %29.94 in10.0 miWest (270°)3.5 mphScattered Clouds
4:51 AM30.9 °F23.0 °F72 %29.91 in10.0 miNW (310°)4.6 mphScattered Clouds
5:51 AM32.0 °F23.0 °F69 %29.92 in10.0 miWSW (250°)5.8 mphScattered Clouds
6:51 AM30.0 °F23.0 °F75 %29.92 in10.0 miWSW (240°)3.5 mphPartly Cloudy
7:51 AM34.0 °F25.0 °F70 %29.92 in10.0 miCalmPartly Cloudy
8:51 AM37.0 °F24.1 °F59 %29.90 in10.0 miNorth (10°)4.6 mphScattered Clouds
9:51 AM39.0 °F21.9 °F50 %29.89 in10.0 miNNE (20°)5.8 mphScattered Clouds
10:51 AM39.0 °F21.9 °F50 %29.91 in10.0 miSE (140°)4.6 mphMostly Cloudy
11:51 AM42.1 °F24.1 °F49 %29.88 in10.0 miVariable4.6 mphMostly Cloudy
12:51 PM41.0 °F24.1 °F51 %29.83 in10.0 miCalmMostly Cloudy
1:51 PM43.0 °F24.1 °F47 %29.78 in10.0 miEast (90°)4.6 mphScattered Clouds
2:51 PM42.1 °F24.1 °F49 %29.77 in10.0 miNE (50°)4.6 mphMostly Cloudy
3:51 PM42.1 °F26.1 °F53 %29.75 in10.0 miSSE (160°)5.8 mphMostly Cloudy
4:51 PM46.0 °F26.1 °F46 %29.72 in10.0 miCalmMostly Cloudy
5:51 PM52.0 °F27.0 °F38 %29.70 in10.0 miEast (80°)3.5 mphOvercast
6:51 PM46.0 °F28.0 °F50 %29.71 in10.0 miCalmOvercast
7:51 PM45.7 °F28.9 °F52 %29.70 in10.0 miCalm0.00 inRainLight Rain
8:51 PM41.2 °F28.9 °F62 %29.71 in10.0 miVariable3.5 mph0.01 inRainLight Rain
9:51 PM38.8 °F28.9 °F68 %29.70 in10.0 miNNW (330°)8.1 mph0.00 inRainLight Rain
10:11 PM37.4 °F28.4 °F70 %29.71 in9.0 miNNW (340°)11.5 mph0.00 inRain-SnowLight Rain
10:44 PM37.4 °F28.4 °F70 %29.71 in7.0 miNorth (360°)11.5 mph0.00 inRain-SnowLight Rain
10:51 PM36.5 °F28.9 °F74 %29.71 in7.0 miNorth (10°)12.7 mph0.00 inRain-SnowLight Rain
11:32 PM35.6 °F32.0 °F87 %29.71 in4.0 miNorth (10°)11.5 mph0.02 inRain-SnowLight Snow
11:51 PM35.1 °F29.8 °F81 %29.72 in4.0 miNorth (10°)11.5 mph0.02 inRain-SnowLight Rain
Hourly data recorded from KEWR, located miles away from Elizabeth, New Jersey







STORIES FROM OUR PARTNERS